Bei Facebook empfehlenBei Twitter postenGoogle plusPinterest

Das Wetter im Erzgebirge am 13.11.2016

Wetter und Klima am 13.11.2016 Holzhau im Erzgebirge (630m ü.NN)
Letzte gemessene Temperatur und Uhrzeit der Messung23:45:00 Uhr-8.90 °C
Temperatur (Maximum / Höchstwert) und Uhrzeit der Messung14:45:00 Uhr1.20 °C
Temperatur (Minimum / Tiefstwert) und Uhrzeit der Messung08:00:00-9.60 °C
Errechneter Absolutwert der Temperaturschwankungen zwischen Tmin und Tmax des Tages10.80 K
Errechnete Tagesmitteltemperatur-5.19896 °C
Gesamt - Niederschlag des Tages (in flüssiger Form)0.00 Liter / m²
Luftdruck (Maximum / Höchstwert) und Zeitpunkt der Messung23:45:00 Uhr1026.40 hPa
Luftdruck (Minimum / Tiefstwert) und Zeitpunkt der Messung03:45:00 Uhr1019.40 hPa
Errechneter Absolutwert der Luftdruckschwankungen des Tages7.00 hPa
Höchste gemessene Windgeschwindigkeit und Uhrzeit der Messung23:45:00 Uhr0.00 km/h
Errechnete Windhäufigkeit in Relation zu den Messwerten des Tages0.00000 %
Niedrigste Windkühle (Windchill) und Zeitpunkt der Messung08:00:00 Uhr-9.60 °C
Taupunkt (Maximum / Höchstwert) und Uhrzeit der Messung12:00:00 Uhr-0.90 °C
Taupunkt (Minimum / Tiefstwert) und Uhrzeit der Messung20:45:00-10.90 °C
Anzahl der automatisch eingelesenen Messwerte 96

Detaillierte Wetter- und Klima- Messwerte für den 13.11.2016 in Holzhau im Erzgebirge (630m ü.NN)
ZeitTemperaturLuftdruckRel. LuftfeuchteWindWindrichtungWindchillTaupunktNiederschlag l/m²
23:45:00-8.90 °C1026.40 hPa89.00 %-10.60 °C 
23:30:00-8.80 °C1026.10 hPa89.00 %-10.50 °C 
23:15:00-8.60 °C1026.00 hPa89.00 %-10.30 °C 
23:00:00-8.70 °C1026.00 hPa89.00 %-10.40 °C 
22:45:00-8.60 °C1026.00 hPa89.00 %-10.30 °C 
22:30:00-8.50 °C1026.00 hPa89.00 %-10.20 °C 
22:15:00-8.60 °C1025.90 hPa89.00 %-10.30 °C 
22:00:00-8.60 °C1026.00 hPa89.00 %-10.30 °C 
21:45:00-8.70 °C1025.60 hPa88.00 %-10.50 °C 
21:30:00-8.90 °C1025.50 hPa88.00 %-10.70 °C 
21:15:00-8.70 °C1025.60 hPa88.00 %-10.50 °C 
21:00:00-8.70 °C1025.20 hPa88.00 %-10.50 °C 
20:45:00-8.90 °C1025.10 hPa87.00 %-10.90 °C 
20:30:00-8.90 °C1025.10 hPa87.00 %-10.90 °C 
20:15:00-8.60 °C1025.10 hPa87.00 %-10.60 °C 
20:00:00-8.20 °C1025.00 hPa87.00 %-10.20 °C 
19:45:00-8.10 °C1024.80 hPa86.00 %-10.30 °C 
19:30:00-7.80 °C1024.60 hPa86.00 %-10.00 °C 
19:15:00-7.70 °C1024.40 hPa86.00 %-9.90 °C 
19:00:00-7.40 °C1024.70 hPa86.00 %-9.60 °C 
18:45:00-7.10 °C1024.60 hPa85.00 %-9.40 °C 
18:30:00-6.90 °C1024.30 hPa85.00 %-9.20 °C 
18:15:00-6.20 °C1024.40 hPa85.00 %-8.60 °C 
18:00:00-5.90 °C1024.10 hPa85.00 %-8.30 °C 
17:45:00-5.90 °C1023.90 hPa84.00 %-8.40 °C 
17:30:00-5.40 °C1023.80 hPa83.00 %-8.10 °C 
17:15:00-5.10 °C1023.70 hPa82.00 %-8.00 °C 
17:00:00-4.70 °C1023.30 hPa82.00 %-7.60 °C 
16:45:00-3.70 °C1023.30 hPa81.00 %-6.80 °C 
16:30:00-3.10 °C1023.10 hPa81.00 %-6.20 °C 
16:15:00-2.70 °C1023.20 hPa80.00 %-6.00 °C 
16:00:00-2.20 °C1022.90 hPa79.00 %-5.70 °C 
15:45:00-1.50 °C1023.10 hPa78.00 %-5.20 °C 
15:30:00-0.60 °C1023.20 hPa77.00 %-4.50 °C 
15:15:000.20 °C1023.30 hPa77.00 %-3.30 °C 
15:00:000.80 °C1023.10 hPa78.00 %-2.60 °C 
14:45:001.20 °C1023.10 hPa78.00 %-2.20 °C 
14:30:001.10 °C1023.10 hPa79.00 %-2.10 °C 
14:15:000.80 °C1023.00 hPa79.00 %-2.40 °C 
14:00:000.90 °C1023.00 hPa80.00 %-2.10 °C 
13:45:001.10 °C1023.10 hPa80.00 %-2.00 °C 
13:30:001.10 °C1023.00 hPa81.00 %-1.80 °C 
13:15:001.00 °C1023.00 hPa82.00 %-1.70 °C 
13:00:000.90 °C1023.00 hPa84.00 %-1.50 °C 
12:45:001.00 °C1022.90 hPa85.00 %-1.20 °C 
12:30:000.90 °C1023.00 hPa86.00 %-1.20 °C 
12:15:000.90 °C1022.90 hPa87.00 %-1.00 °C 
12:00:000.70 °C1022.80 hPa89.00 %-0.90 °C 
11:45:00-0.10 °C1022.80 hPa90.00 %-1.70 °C 
11:30:00-0.40 °C1022.80 hPa90.00 %-2.00 °C 
11:15:00-0.70 °C1022.70 hPa91.00 %-2.10 °C 
11:00:00-1.20 °C1022.70 hPa92.00 %-2.50 °C 
10:45:00-1.80 °C1022.50 hPa92.00 %-3.10 °C 
10:30:00-2.20 °C1022.40 hPa92.00 %-3.50 °C 
10:15:00-3.00 °C1022.20 hPa93.00 %-4.10 °C 
10:00:00-3.60 °C1022.10 hPa93.00 %-4.70 °C 
09:45:00-4.40 °C1022.00 hPa93.00 %-5.50 °C 
09:30:00-5.20 °C1021.90 hPa93.00 %-6.30 °C 
09:15:00-5.80 °C1022.00 hPa93.00 %-6.90 °C 
09:00:00-6.50 °C1021.80 hPa92.00 %-7.70 °C 
08:45:00-7.20 °C1021.60 hPa92.00 %-8.40 °C 
08:30:00-8.10 °C1021.50 hPa92.00 %-9.30 °C 
08:15:00-9.10 °C1021.50 hPa92.00 %-10.30 °C 
08:00:00-9.60 °C1021.40 hPa92.00 %-10.80 °C 
07:45:00-9.60 °C1021.30 hPa91.00 %-10.90 °C 
07:30:00-9.30 °C1021.00 hPa91.00 %-10.60 °C 
07:15:00-9.30 °C1020.80 hPa91.00 %-10.60 °C 
07:00:00-9.10 °C1020.60 hPa91.00 %-10.40 °C 
06:45:00-9.20 °C1020.40 hPa91.00 %-10.50 °C 
06:30:00-9.50 °C1020.30 hPa91.00 %-10.80 °C 
06:15:00-9.30 °C1020.30 hPa91.00 %-10.60 °C 
06:00:00-9.10 °C1020.20 hPa91.00 %-10.40 °C 
05:45:00-8.90 °C1020.10 hPa91.00 %-10.20 °C 
05:30:00-9.00 °C1019.90 hPa91.00 %-10.30 °C 
05:15:00-8.60 °C1019.90 hPa91.00 %-10.00 °C 
05:00:00-8.40 °C1019.70 hPa91.00 %-9.80 °C 
04:45:00-8.60 °C1019.90 hPa90.00 %-10.10 °C 
04:30:00-8.30 °C1019.70 hPa90.00 %-9.80 °C 
04:15:00-7.80 °C1019.60 hPa90.00 %-9.30 °C 
04:00:00-7.40 °C1019.50 hPa90.00 %-8.90 °C 
03:45:00-6.70 °C1019.40 hPa90.00 %-8.20 °C 
03:30:00-5.70 °C1019.40 hPa90.00 %-7.20 °C 
03:15:00-5.10 °C1019.50 hPa91.00 %-6.50 °C 
03:00:00-4.80 °C1019.40 hPa91.00 %-6.20 °C 
02:45:00-4.40 °C1019.50 hPa91.00 %-5.80 °C 
02:30:00-4.20 °C1019.60 hPa91.00 %-5.60 °C 
02:15:00-4.20 °C1019.60 hPa91.00 %-5.60 °C 
02:00:00-4.20 °C1019.70 hPa91.00 %-5.60 °C 
01:45:00-4.20 °C1019.80 hPa91.00 %-5.60 °C 
01:30:00-4.10 °C1019.50 hPa91.00 %-5.50 °C 
01:15:00-4.10 °C1019.40 hPa91.00 %-5.50 °C 
01:00:00-3.90 °C1019.50 hPa91.00 %-5.30 °C 
00:45:00-3.80 °C1019.60 hPa92.00 %-5.00 °C 
00:30:00-3.80 °C1019.50 hPa92.00 %-5.00 °C 
00:15:00-3.70 °C1019.40 hPa92.00 %-4.90 °C 
00:00:00-3.60 °C1019.50 hPa92.00 %-4.80 °C 

Permanenter Link zu dieser Seite: Wetter im Erzgebirge am 13.11.2016
Performance-Info: Die Erstellung der Seite / Statistik(en) / Tabelle(n) erforderte 5 Datenbankserver-Abfrage(n) und dauerte 97 Millisekunden. (Dieser Messwert ist von der Gesamt-Auslastung des Servers abhängig.)
Erzgebirge - Wetter | Erzgebirge - Wetter (Mobilgeräte) | Komplette Klimadatenbank